Regional Weather Roundup
Issued by NWS

Home | Current Version | Previous Version | Text Only | Print | Product List | Glossary Off
Versions: 1 2 3 4 5 6 7 8 9 10 11 12 13 14 15 16 17 18 19 20 21 22 23 24 25 26 27 28 29 30 31 32 33 34 35 36 37 38 39 40 41 42 43 44 45 46 47 48 49 50

000
ASUS43 KIND 190409
RWRIN

WEATHER ROUNDUP FOR INDIANA
NATIONAL WEATHER SERVICE INDIANAPOLIS IN
1200 AM EDT FRI SEP 19 2014

NOTE: "FAIR" INDICATES FEW OR NO CLOUDS BELOW 12,000 FEET WITH NO
SIGNIFICANT WEATHER AND/OR OBSTRUCTIONS TO VISIBILITY.

* - STATION DOES NOT REPORT WEATHER SUCH AS PRECIPITATION OR FOG.

+ - STATION NOT QUALITY CONTROLLED BY THE NATIONAL WEATHER SERVICE.
    USE DATA WITH CAUTION...ESPECIALLY DEWPOINT AND RELATIVE
    HUMIDITY OBSERVATIONS.

INZ001>003-010>013-019-020-190500-
NORTHWEST INDIANA

CITY           SKY/WX    TMP DP  RH WIND       PRES   REMARKS
GARY /AIRPORT/ CLEAR     62  58  86 NE6       30.16R
KNOX *+        CLEAR     50  48  92 CALM      30.15S
LA PORTE +     PTCLDY    51  51  98 E6        30.16S
MICHIGAN CITY+ CLEAR     52  52 100 CALM      30.17S
MONTICELLO +   CLEAR     52  51  95 CALM      30.14R
RENSSELAER +   CLEAR     54  54 100 NE3       30.15R
VALPARAISO     CLEAR     52  51  97 NE3       30.16R

$$

LMZ046-743>745-190500-
SOUTHERN LAKE MICHIGAN

STATION/POSITION TIME  TEMP WIND        PRES
                       AIR  DIR/SP/G
                 (UTC) (F)  (DEG/KT/KT) (MB)
MICHIGAN CITY    0400   58   70/  8/ 10   N/A

$$

INZ004-005-014>016-021>024-190500-
NORTH CENTRAL INDIANA

CITY           SKY/WX    TMP DP  RH WIND       PRES   REMARKS
GOSHEN         CLEAR     55  50  83 E6        30.18R
LOGANSPORT +   CLEAR     50  46  87 CALM      30.16R
PERU/GRISSOM   CLEAR     55  53  95 E6        30.15R
ROCHESTER +    CLEAR     54  50  87 CALM      30.16R
SOUTH BEND     CLEAR     59  51  75 E8        30.18R
WARSAW +       CLEAR     54  50  87 E6        30.17S

$$

INZ006>009-017-018-025>027-190500-
NORTHEAST INDIANA

CITY           SKY/WX    TMP DP  RH WIND       PRES   REMARKS
ANGOLA *+      CLEAR     54  50  87 E7        30.20R
AUBURN +       CLEAR     54  50  87 E3        30.20R
FORT WAYNE     CLEAR     54  49  83 E5        30.18R
HUNTINGTON +   CLEAR     54  49  85 E3        30.17R

$$

INZ028-029-035-036-043>045-051>053-190500-
WEST CENTRAL INDIANA

CITY           SKY/WX    TMP DP  RH WIND       PRES   REMARKS
GREENCASTLE +  CLEAR     54  50  87 CALM      30.13S
LAFAYETTE      CLEAR     55  50  83 CALM      30.13S
TERRE HAUTE    CLEAR     50  48  93 NE3       30.12R

$$

INZ030>032-037>040-046>048-054>057-064-065-190500-
CENTRAL INDIANA

CITY           SKY/WX    TMP DP  RH WIND       PRES   REMARKS
CP ATTERBURY + CLEAR     50  48  93 CALM      30.13S
FRANKFORT +    CLEAR     52  49  89 E5        30.15S
GREENWOOD *+   CLEAR     57  50  77 CALM      30.14
INDIANAPOLIS   CLEAR     60  49  66 E7        30.13R
-EAGLE CREEK   CLEAR     58  48  69 CALM      30.13R
KOKOMO *+      CLEAR     52  46  82 E7        30.15S
MARION +       CLEAR     54  48  78 E5        30.17R
MT COMFORT *+  CLEAR     52  48  87 CALM      30.14S
SHELBYVILLE    CLEAR     53  48  83 E6        30.13R
ZIONSVILLE +   CLEAR     55  47  72 E3        30.15R

$$

INZ033-034-041-042-049-050-058-059-190500-
EAST CENTRAL INDIANA

CITY           SKY/WX    TMP DP  RH WIND       PRES   REMARKS
MUNCIE         CLEAR     51  46  83 E6        30.16R

$$

INZ060-061-067>069-081>083-085>088-190500-
SOUTHWEST INDIANA

CITY           SKY/WX    TMP DP  RH WIND       PRES   REMARKS
EVANSVILLE     CLEAR     60  53  77 N5        30.09R
WASHINGTON +   CLEAR     50  50 100 CALM      30.10S

$$

INZ062-063-066-070>080-084-089>092-190500-
SOUTH CENTRAL AND SOUTHEAST INDIANA

CITY           SKY/WX    TMP DP  RH WIND       PRES   REMARKS
BLOOMINGTON    CLEAR     49  49 100 CALM      30.12R

$$



USA.gov is the U.S. government's official web portal to all federal, state and local government web resources and services.